"2016-04-20 00:00:00",1562331,3.503,103.9,5.598,1.262,8.84,102.1545,4.798,5.943,55.22,0,110.1,13.22,5.57,65.9
"2016-04-20 00:00:30",1562332,3.722,113.3,7.575,1.323,9.07,102.1565,4.803,6.006,55.34,0,110.1,13.22,5.57,75.3
"2016-04-20 00:01:00",1562333,3.244,106.7,6.845,1.504,8.73,102.1551,4.799,5.848,55.03,0,110.1,13.21,5.57,68.7
"2016-04-20 00:01:30",1562334,3.536,105.7,8.41,1.409,8.89,102.1574,4.805,5.936,55.17,0,110.1,13.22,5.57,67.7
"2016-04-20 00:02:00",1562335,3.099,96.8,6.413,1.035,9.05,102.1593,4.81,5.928,55.18,0,110,13.22,5.58,58.8
"2016-04-20 00:02:30",1562336,4.091,113.8,8.64,1.202,9.52,102.1683,4.833,5.958,55.09,0,110.1,13.21,5.60,75.8
"2016-04-20 00:03:00",1562337,3.35,114.4,13.41,1.425,8.94,102.1714,4.841,6.01,55.21,0,110.1,13.22,5.61,76.4
"2016-04-20 00:03:30",1562338,3.482,115.9,8.39,1.594,10,102.1717,4.842,5.999,55.68,0,110,13.21,5.61,77.9
"2016-04-20 00:04:00",1562339,3.401,119.2,8.45,1.294,8.57,102.1766,4.854,5.997,55.62,0,110,13.22,5.62,81.2
"2016-04-20 00:04:30",1562340,2.683,118,5.315,0.75,7.867,102.1842,4.874,5.9,55.23,0,110,13.22,5.64,80.0
"2016-04-20 00:05:00",1562341,3.722,131.6,7.47,1.462,9.97,102.1873,4.882,5.984,55.13,0,110.1,13.22,5.65,93.6
"2016-04-20 00:05:30",1562342,2.997,118.5,7.767,1.168,8.75,102.1901,4.889,5.97,54.97,0,110.1,13.23,5.66,80.5
"2016-04-20 00:06:00",1562343,4.298,122.7,9.29,1.477,10.06,102.1916,4.892,6.019,55.08,0,110.1,13.23,5.66,84.7
"2016-04-20 00:06:30",1562344,4.057,134.2,7.805,1.4,9.08,102.1901,4.889,6.053,54.81,0,110.1,13.23,5.66,96.2
"2016-04-20 00:07:00",1562345,3.764,136.9,6.84,1.473,9.85,102.1904,4.889,6.088,54.64,0,110.1,13.23,5.66,98.9
"2016-04-20 00:07:30",1562346,3.363,137.9,8.37,1.346,9.34,102.1892,4.886,6.011,54.44,0,110.1,13.23,5.66,99.9
"2016-04-20 00:08:00",1562347,2.443,122.2,3.581,0.251,7.23,102.1872,4.881,5.909,54.37,0,110.1,13.27,5.65,84.2
"2016-04-20 00:08:30",1562348,3.734,137.8,8.21,1.221,8.93,102.2,4.914,6.08,54.64,0,110.1,13.23,5.68,99.8
"2016-04-20 00:09:00",1562349,3.724,127.1,9.84,1.223,8.84,102.205,4.927,6.034,54.7,0,110.1,13.23,5.70,89.1
"2016-04-20 00:09:30",1562350,3.981,138.6,8.54,1.48,9.68,102.2158,4.954,6.058,54.84,0,110,13.23,5.72,100.6
"2016-04-20 00:10:00",1562351,2.804,145.3,7.948,1.262,8.76,102.2214,4.969,6.043,54.62,0,110.1,13.23,5.74,107.3
"2016-04-20 00:10:30",1562352,3.376,140,7.275,1.471,9.34,102.2197,4.964,6.051,54.41,0,110.1,13.23,5.73,102.0
"2016-04-20 00:11:00",1562353,2.875,135.3,9.22,1.199,8.51,102.2273,4.984,6.128,54.7,0,110.1,13.23,5.75,97.3
"2016-04-20 00:11:30",1562354,2.261,125.9,5.531,0.175,7.079,102.2417,5.02,5.976,54.82,0,110.1,13.27,5.79,87.9
"2016-04-20 00:12:00",1562355,2.765,122.7,6.921,1.284,8.77,102.2498,5.041,6.081,55.01,0,110.1,13.23,5.81,84.7
"2016-04-20 00:12:30",1562356,2.884,126,8.52,1.38,9.29,102.2523,5.048,6.23,55.12,0,110.1,13.23,5.82,88.0
"2016-04-20 00:13:00",1562357,2.718,133.1,7.468,1.261,8.49,102.2664,5.083,6.182,55.06,0,110.1,13.23,5.85,95.1
"2016-04-20 00:13:30",1562358,3.653,140,7.883,1.409,10,102.2762,5.108,6.215,54.84,0,110.1,13.23,5.88,102.0
"2016-04-20 00:14:00",1562359,2.189,125.8,2.969,0.685,7.662,102.2761,5.108,6.125,54.47,0,110.1,13.23,5.88,87.8
"2016-04-20 00:14:30",1562360,3.149,124.8,7.155,1.478,9.33,102.2914,5.147,6.204,54.37,0,110.1,13.23,5.92,86.8
"2016-04-20 00:15:00",1562361,2.54,121.5,5.608,1.184,8.4,102.3052,5.183,6.222,54.27,0,110.1,13.23,5.95,83.5
"2016-04-20 00:15:30",1562362,1.792,118,1.81,0.076,7.067,102.3128,5.202,6.146,54.1,0,110.1,13.26,5.97,80.0
"2016-04-20 00:16:00",1562363,2.489,120,6.683,1.261,8.4,102.3269,5.238,6.273,54.12,0,110.1,13.22,6.01,82.0
"2016-04-20 00:16:30",1562364,3.338,123.5,7.902,1.417,10.11,102.3382,5.267,6.328,53.92,0,110.1,13.21,6.04,85.5
"2016-04-20 00:17:00",1562365,2.491,126.9,10.51,1.227,8.88,102.3404,5.273,6.358,53.72,0,110.1,13.21,6.04,88.9
"2016-04-20 00:17:30",1562366,2.616,113.8,7.967,1.301,8.88,102.3596,5.322,6.331,53.59,0,110.1,13.21,6.09,75.8
"2016-04-20 00:18:00",1562367,2.954,122.1,7.492,1.421,8.26,102.3721,5.353,6.328,53.41,0,110.1,13.21,6.12,84.1
"2016-04-20 00:18:30",1562368,3.402,113.5,8.37,1.426,9.16,102.374,5.358,6.524,53.44,0,110.1,13.21,6.13,75.5
"2016-04-20 00:19:00",1562369,2.786,113.5,6.996,1.1,8.01,102.3879,5.394,6.345,53.14,0,110.1,13.21,6.16,75.5
"2016-04-20 00:19:30",1562370,2.059,106.8,3.74,0.111,7.323,102.4,5.425,6.351,53,0,110.1,13.26,6.20,68.8
"2016-04-20 00:20:00",1562371,2.784,114,9.2,1.222,8.96,102.406,5.44,6.504,53.01,0,110.1,13.21,6.21,76.0
"2016-04-20 00:20:30",1562372,3.73,118.7,12.53,1.422,10.73,102.4079,5.445,6.669,53.08,0,110.1,13.21,6.22,80.7
"2016-04-20 00:21:00",1562373,3.603,130.5,7.082,1.475,9.72,102.4204,5.477,6.526,52.86,0,110.1,13.21,6.25,92.5
"2016-04-20 00:21:30",1562374,2.017,122.1,3.317,0.573,7.787,102.4288,5.498,6.533,52.81,0,110.1,13.21,6.27,84.1
"2016-04-20 00:22:00",1562375,3.347,126.9,10.15,1.397,9.37,102.4384,5.523,6.564,52.86,0,110.1,13.21,6.29,88.9
"2016-04-20 00:22:30",1562376,2.756,124.7,6.585,1.266,8.7,102.4398,5.526,6.589,52.81,0,110.1,13.21,6.30,86.7
"2016-04-20 00:23:00",1562377,2.003,126.9,6.003,0.276,7.138,102.4398,5.526,6.475,52.62,0,110.1,13.26,6.30,88.9
"2016-04-20 00:23:30",1562378,2.327,129.2,9.68,1.233,8.68,102.4432,5.535,6.609,52.59,0,110.1,13.21,6.31,91.2
"2016-04-20 00:24:00",1562379,2.944,117.1,8.22,1.354,10.09,102.4557,5.567,6.707,52.63,0,110.1,13.21,6.34,79.1
"2016-04-20 00:24:30",1562380,2.484,108.1,9.26,1.453,9.44,102.4576,5.572,6.67,52.53,0,110.1,13.21,6.34,70.1
"2016-04-20 00:25:00",1562381,2.355,108.8,11.63,1.311,9.03,102.4627,5.585,6.638,52.5,0,110.1,13.21,6.36,70.8
"2016-04-20 00:25:30",1562382,1.399,100.2,4.458,0.152,7.622,102.472,5.609,6.62,52.47,0,110.1,13.26,6.38,62.2
"2016-04-20 00:26:00",1562383,3.048,116.1,5.943,1.424,9.72,102.4734,5.612,6.71,52.57,0,110.1,13.21,6.38,78.1
"2016-04-20 00:26:30",1562384,1.966,121.7,5.542,1.045,8.49,102.4734,5.612,6.696,52.49,0,110.1,13.21,6.38,83.7
"2016-04-20 00:27:00",1562385,1.287,121.2,6.309,0.145,7.292,102.4737,5.613,6.587,52.25,0,110.1,13.26,6.38,83.2
"2016-04-20 00:27:30",1562386,1.683,106.8,8.21,1.186,8.75,102.474,5.614,6.672,52.26,0,110.1,13.21,6.39,68.8
"2016-04-20 00:28:00",1562387,2.591,104.5,7.944,1.404,10.66,102.4785,5.625,6.775,52.29,0,110.1,13.21,6.40,66.5
"2016-04-20 00:28:30",1562388,2.423,104.9,9.23,1.393,9.49,102.4856,5.643,6.731,52.18,0,110.1,13.21,6.42,66.9
"2016-04-20 00:29:00",1562389,2.478,103.7,10.36,1.319,9.81,102.4881,5.65,6.814,52.11,0,110.1,13.21,6.42,65.7
"2016-04-20 00:29:30",1562390,1.691,110.2,7.732,0.833,8.03,102.4901,5.655,6.714,51.92,0,110.1,13.21,6.43,72.2
"2016-04-20 00:30:00",1562391,2.427,112.9,12.37,1.444,9.76,102.4895,5.653,6.767,51.93,0,110.1,13.21,6.43,74.9
"2016-04-20 00:30:30",1562392,1.025,95.6,6.023,0.101,7.598,102.4884,5.651,6.681,51.83,0,110.1,13.26,6.42,57.6
"2016-04-20 00:31:00",1562393,0.935,101.7,8.23,0.264,7.65,102.487,5.647,6.637,51.71,0,110.1,13.25,6.42,63.7
"2016-04-20 00:31:30",1562394,1.421,116,9.52,1.207,8.56,102.4842,5.64,6.666,51.71,0,110.1,13.21,6.41,78.0
"2016-04-20 00:32:00",1562395,1.296,111.9,10.27,1.232,9.16,102.4782,5.625,6.783,51.85,0,110.1,13.21,6.40,73.9
"2016-04-20 00:32:30",1562396,2.179,107.1,10.64,1.391,10.18,102.4743,5.614,6.714,51.8,0,110.1,13.21,6.39,69.1
"2016-04-20 00:33:00",1562397,1.727,127.5,8.36,1.249,9.06,102.474,5.614,6.779,51.86,0,110.1,13.2,6.39,89.5
"2016-04-20 00:33:30",1562398,1.496,126.2,8.73,1.336,8.9,102.4737,5.613,6.709,51.72,0,110.1,13.21,6.38,88.2
"2016-04-20 00:34:00",1562399,1.774,123.1,7.611,1.322,8.87,102.4737,5.613,6.846,51.91,0,110.1,13.2,6.38,85.1
"2016-04-20 00:34:30",1562400,1.442,134.8,7.937,1.279,8.49,102.4737,5.613,6.736,51.86,0,110.1,13.21,6.38,96.8
"2016-04-20 00:35:00",1562401,0.335,103.9,5.117,0.16,7.612,102.4718,5.608,6.619,51.85,0,110.1,13.25,6.38,65.9
"2016-04-20 00:35:30",1562402,0.221,97,6.421,0.067,7.61,102.4669,5.596,6.621,51.88,0,110.1,13.25,6.37,59.0
"2016-04-20 00:36:00",1562403,0.363,111.5,6.154,0.135,7.549,102.4613,5.581,6.617,51.91,0,110.1,13.25,6.35,73.5
"2016-04-20 00:36:30",1562404,1.652,119.9,7.198,1.381,8.99,102.4568,5.57,6.723,52.08,0,110.1,13.21,6.34,81.9
"2016-04-20 00:37:00",1562405,2.038,127.1,7.867,1.215,9.07,102.4562,5.568,6.805,52.6,0,110.1,13.21,6.34,89.1
"2016-04-20 00:37:30",1562406,3.131,116.2,13.44,1.377,10.83,102.4455,5.541,6.747,53.1,0,110.1,13.21,6.31,78.2
"2016-04-20 00:38:00",1562407,2.535,105.2,10.6,1.384,10.07,102.4401,5.527,6.694,53.33,0,110.1,13.21,6.30,67.2
"2016-04-20 00:38:30",1562408,2.021,112.2,8.57,1.392,9.79,102.4398,5.526,6.792,53.52,0,110.1,13.21,6.30,74.2
"2016-04-20 00:39:00",1562409,1.554,112.2,9.05,0.961,7.757,102.4393,5.525,6.581,53.42,0,110.1,13.21,6.30,74.2
"2016-04-20 00:39:30",1562410,1.717,131.7,4.678,0.107,7.241,102.4305,5.503,6.559,53.21,0,110.1,13.26,6.27,93.7
"2016-04-20 00:40:00",1562411,1.501,133,5.384,0.078,7.504,102.4209,5.478,6.559,52.79,0,110.1,13.23,6.25,95.0
"2016-04-20 00:40:30",1562412,2.334,129.6,7.648,1.313,9.45,102.4079,5.445,6.67,52.73,0,110.1,13.22,6.22,91.6
"2016-04-20 00:41:00",1562413,3.64,128.6,7.387,1.356,11.16,102.406,5.44,6.689,52.55,0,110.1,13.22,6.21,90.6
"2016-04-20 00:41:30",1562414,2.645,131.9,7.194,1.246,9.36,102.4034,5.433,6.667,52.48,0,110.1,13.22,6.20,93.9
"2016-04-20 00:42:00",1562415,3.315,141.9,6.064,1.515,9.88,102.3907,5.401,6.707,52.59,0,110.1,13.22,6.17,103.9
"2016-04-20 00:42:30",1562416,2.751,134.3,6.88,1.369,9.4,102.374,5.358,6.568,52.6,0,110.1,13.22,6.13,96.3
"2016-04-20 00:43:00",1562417,1.525,126,2.409,0.092,7.561,102.3721,5.353,6.446,52.39,0,110.1,13.26,6.12,88.0
"2016-04-20 00:43:30",1562418,1.565,121.5,3.478,0.088,7.578,102.3715,5.352,6.425,52.36,0,110.1,13.26,6.12,83.5
"2016-04-20 00:44:00",1562419,2.654,115.8,9.85,1.403,10,102.358,5.317,6.532,52.49,0,110.1,13.22,6.09,77.8
"2016-04-20 00:44:30",1562420,2.282,110.5,8.45,1.262,9.72,102.3421,5.277,6.562,52.68,0,110.1,13.22,6.05,72.5
"2016-04-20 00:45:00",1562421,3.085,128.6,9.91,1.369,10.3,102.3382,5.267,6.524,52.76,0,110.1,13.22,6.04,90.6
"2016-04-20 00:45:30",1562422,2.75,111.9,6.635,1.354,9.52,102.3382,5.267,6.496,52.74,0,110.1,13.22,6.04,73.9
"2016-04-20 00:46:00",1562423,2.976,115.6,8.32,1.39,10.16,102.3337,5.255,6.579,52.82,0,110.1,13.22,6.03,77.6
"2016-04-20 00:46:30",1562424,1.887,108.6,5.516,0.876,7.843,102.3235,5.229,6.36,52.68,0,110.1,13.23,6.00,70.6
"2016-04-20 00:47:00",1562425,1.52,111.7,2.258,0.031,7.535,102.3193,5.218,6.327,52.65,0,110.1,13.27,5.99,73.7
"2016-04-20 00:47:30",1562426,1.98,118.3,7.261,1.09,8.32,102.3083,5.19,6.326,52.68,0,110.1,13.21,5.96,80.3
"2016-04-20 00:48:00",1562427,2.594,121.5,7.379,1.389,10.02,102.3043,5.18,6.485,52.91,0,110.1,13.23,5.95,83.5
"2016-04-20 00:48:30",1562428,3.203,119.6,6.627,1.353,10.05,102.3043,5.18,6.438,52.93,0,110.1,13.22,5.95,81.6
"2016-04-20 00:49:00",1562429,2.684,127.6,10.54,1.348,9.2,102.2958,5.159,6.447,53.58,0,110.1,13.23,5.93,89.6
"2016-04-20 00:49:30",1562430,3.137,130.8,7.125,1.475,10.32,102.2854,5.132,6.44,54.07,0,110.1,13.22,5.90,92.8
"2016-04-20 00:50:00",1562431,2.396,130.8,10.71,1.324,8.58,102.273,5.1,6.339,54.36,0,110.1,13.21,5.87,92.8
"2016-04-20 00:50:30",1562432,1.412,122.2,5.573,0.109,7.515,102.2704,5.094,6.228,54.23,0,110.1,13.26,5.86,84.2
"2016-04-20 00:51:00",1562433,1.938,133.8,5.57,0.957,8.04,102.2701,5.093,6.261,55.04,0,110.1,13.22,5.86,95.8
"2016-04-20 00:51:30",1562434,2.975,133.3,8.55,1.378,10.43,102.2569,5.059,6.337,55.96,0,110.1,13.22,5.83,95.3
"2016-04-20 00:52:00",1562435,1.947,128.6,9.32,1.042,8.87,102.2442,5.027,6.256,55.79,0,110.1,13.22,5.80,90.6
"2016-04-20 00:52:30",1562436,2.651,137.1,8.55,1.393,9.31,102.242,5.021,6.251,55.77,0,110.1,13.22,5.79,99.1
"2016-04-20 00:53:00",1562437,2.957,133.5,7.978,1.374,10.03,102.242,5.021,6.302,55.74,0,110.1,13.22,5.79,95.5
"2016-04-20 00:53:30",1562438,2.771,120.5,8.89,1.406,9.37,102.2452,5.029,6.177,55.53,0,110.1,13.22,5.80,82.5
"2016-04-20 00:54:00",1562439,1.84,110,4.988,0.115,7.494,102.2375,5.01,6.103,55.49,0,110.1,13.26,5.78,72.0
"2016-04-20 00:54:30",1562440,1.98,114.8,2.867,0.335,7.493,102.2308,4.993,6.061,55.4,0,110.1,13.27,5.76,76.8
"2016-04-20 00:55:00",1562441,2.638,122.4,8.57,1.27,9.89,102.2281,4.986,6.253,55.74,0,110.1,13.23,5.76,84.4
"2016-04-20 00:55:30",1562442,2.512,127.2,7.427,1.371,9.68,102.2185,4.961,6.143,55.54,0,110.1,13.23,5.73,89.2
"2016-04-20 00:56:00",1562443,3.094,118,7.335,1.395,10.21,102.2194,4.963,6.227,55.52,0,110.1,13.23,5.73,80.0
"2016-04-20 00:56:30",1562444,2.98,115.7,5.621,1.322,9.52,102.2194,4.963,6.171,55.42,0,110.1,13.23,5.73,77.7
"2016-04-20 00:57:00",1562445,3.045,119.3,6.369,1.352,9.24,102.2202,4.966,6.194,55.45,0,110,13.23,5.73,81.3
"2016-04-20 00:57:30",1562446,2.595,114.8,6.725,1.134,8.08,102.2149,4.952,6.01,55.22,0,110.1,13.23,5.72,76.8
"2016-04-20 00:58:00",1562447,1.868,118.5,4.143,0.188,7.41,102.2087,4.936,6,55.16,0,110,13.28,5.71,80.5
"2016-04-20 00:58:30",1562448,3.124,139.1,7.2,1.394,10.36,102.2068,4.931,6.138,55.37,0,110.1,13.23,5.70,101.1
"2016-04-20 00:59:00",1562449,2.689,129.1,8.95,1.446,10.13,102.2014,4.918,6.129,55.43,0,110,13.23,5.69,91.1
"2016-04-20 00:59:30",1562450,2.849,129.3,8.99,1.343,9.87,102.1936,4.897,6.181,55.5,0,110,13.24,5.67,91.3
"2016-04-20 01:00:00",1562451,3.002,120.9,6.004,1.298,9.08,102.1944,4.9,6.106,55.44,0,110,13.23,5.67,82.9
"2016-04-20 01:00:30",1562452,3.174,122,8.66,1.401,9.71,102.1953,4.902,6.077,55.31,0,110.1,13.24,5.67,84.0
"2016-04-20 01:01:00",1562453,2.023,120.1,5.41,0.922,8.25,102.1956,4.903,6.052,55.21,0,110,13.23,5.67,82.1
"2016-04-20 01:01:30",1562454,1.484,102.7,3.768,0.071,7.798,102.1931,4.896,5.935,55.04,0,110,13.28,5.67,64.7
"2016-04-20 01:02:00",1562455,1.89,108.7,8.02,1.084,9.1,102.1849,4.875,6.029,55.02,0,110,13.24,5.64,70.7
"2016-04-20 01:02:30",1562456,1.787,115.4,7.25,1.265,9.25,102.1824,4.869,6.041,55.01,0,110,13.24,5.64,77.4
"2016-04-20 01:03:00",1562457,1.748,114.4,7.963,1.324,9.22,102.1847,4.875,6.036,54.94,0,110,13.24,5.64,76.4
"2016-04-20 01:03:30",1562458,1.658,120.4,9.98,1.194,8.91,102.1833,4.871,6.055,54.93,0,110,13.24,5.64,82.4
"2016-04-20 01:04:00",1562459,1.763,131.9,9.28,1.254,8.43,102.1779,4.858,6.019,54.9,0,110,13.24,5.63,93.9
"2016-04-20 01:04:30",1562460,1.962,145.6,9.12,1.334,9.3,102.1714,4.841,6.095,54.98,0,110,13.24,5.61,107.6
"2016-04-20 01:05:00",1562461,1.313,139.4,7.55,0.795,7.9,102.1695,4.836,5.895,54.8,0,110,13.24,5.60,101.4
"2016-04-20 01:05:30",1562462,0.73,135.9,6.354,0.087,7.395,102.1695,4.836,5.892,54.85,0,110,13.28,5.60,97.9
"2016-04-20 01:06:00",1562463,1.04,122,2.796,0.535,7.63,102.1695,4.836,5.935,54.94,0,110,13.24,5.60,84.0
"2016-04-20 01:06:30",1562464,2.602,140.8,6.016,1.349,10.44,102.1695,4.836,6.034,55.05,0,110,13.24,5.60,102.8
"2016-04-20 01:07:00",1562465,2.042,131.7,7.316,1.221,9.18,102.1695,4.836,6.007,55.03,0,110,13.23,5.60,93.7
"2016-04-20 01:07:30",1562466,2.239,122.8,7.661,1.382,10.05,102.1695,4.836,6.084,55.08,0,110,13.23,5.60,84.8
"2016-04-20 01:08:00",1562467,1.47,128.3,9.6,1.168,8.77,102.1695,4.836,5.994,54.99,0,110,13.23,5.60,90.3
"2016-04-20 01:08:30",1562468,1.794,130.7,8.71,1.237,9.15,102.1695,4.836,6.043,55.13,0,110,13.23,5.60,92.7
"2016-04-20 01:09:00",1562469,1.71,138.2,7.837,1.137,8.17,102.1689,4.835,5.898,54.98,0,110,13.23,5.60,100.2
"2016-04-20 01:09:30",1562470,1.001,134,3.152,0.083,7.53,102.1678,4.832,5.874,54.89,0,110,13.28,5.60,96.0
"2016-04-20 01:10:00",1562471,1.763,145,8.31,1.232,8.9,102.1641,4.822,5.915,54.88,0,110,13.24,5.59,107.0
"2016-04-20 01:10:30",1562472,2.216,143.3,6.257,1.369,10.02,102.1627,4.819,6.078,55.12,0,110,13.23,5.59,105.3
"2016-04-20 01:11:00",1562473,2.894,138.7,8.51,1.425,10.39,102.1596,4.811,5.968,54.96,0,110,13.23,5.58,100.7
"2016-04-20 01:11:30",1562474,2.025,129.3,5.231,1.272,8.95,102.1559,4.801,6.009,54.97,0,110,13.24,5.57,91.3
"2016-04-20 01:12:00",1562475,1.921,131.1,7.001,1.251,8.65,102.1523,4.792,5.975,54.99,0,110,13.24,5.56,93.1
"2016-04-20 01:12:30",1562476,2.247,130.2,6.984,1.321,9.27,102.1458,4.775,6.028,55.06,0,110,13.24,5.54,92.2
"2016-04-20 01:13:00",1562477,1.75,130.4,3.465,1.062,7.995,102.1384,4.757,5.845,54.89,0,110,13.24,5.53,92.4
"2016-04-20 01:13:30",1562478,1.374,135.7,1.909,0.061,7.585,102.1364,4.752,5.856,54.96,0,110,13.29,5.52,97.7
"2016-04-20 01:14:00",1562479,2.275,144.4,7.28,1.305,9.78,102.1362,4.751,5.95,55.26,0,110,13.24,5.52,106.4
"2016-04-20 01:14:30",1562480,1.89,146.9,6.917,1.263,9.31,102.1359,4.75,5.959,55.4,0,110,13.24,5.52,108.9
"2016-04-20 01:15:00",1562481,2.191,146.8,9.4,1.365,9.59,102.137,4.753,5.951,55.52,0,110,13.24,5.52,108.8
"2016-04-20 01:15:30",1562482,1.848,140.7,5.887,1.224,8.78,102.1388,4.758,5.969,55.48,0,110,13.24,5.53,102.7
"2016-04-20 01:16:00",1562483,1.971,144.7,6.394,1.284,9.23,102.1416,4.765,5.992,55.28,0,110,13.24,5.53,106.7
"2016-04-20 01:16:30",1562484,2.387,148.9,7.436,1.418,9.87,102.1451,4.774,6.018,55.15,0,110,13.24,5.54,110.9
"2016-04-20 01:17:00",1562485,1.081,143.9,2.845,0.048,7.46,102.1457,4.775,5.827,54.86,0,110,13.24,5.54,105.9
"2016-04-20 01:17:30",1562486,1.201,151.8,2.277,0.06,7.704,102.1486,4.783,5.846,54.92,0,110,13.29,5.55,113.8
"2016-04-20 01:18:00",1562487,2.401,159.6,6.911,1.424,10.67,102.1532,4.794,6.014,55.36,0,110,13.25,5.56,121.6
"2016-04-20 01:18:30",1562488,2.353,155.1,6.96,1.418,10.23,102.1538,4.796,5.953,55.43,0,110,13.25,5.56,117.1
"2016-04-20 01:19:00",1562489,1.796,155.1,7.201,1.308,9.64,102.1569,4.804,6.002,55.66,0,110,13.25,5.57,117.1
"2016-04-20 01:19:30",1562490,1.739,158.2,5.063,1.181,8.8,102.1581,4.807,5.872,55.62,0,110,13.25,5.58,120.2
"2016-04-20 01:20:00",1562491,1.827,159.7,7.49,1.316,9,102.1587,4.809,5.92,55.66,0,110,13.25,5.58,121.7
"2016-04-20 01:20:30",1562492,2.356,158.3,7.351,1.435,9.74,102.1551,4.799,6.009,55.58,0,110,13.25,5.57,120.3
"2016-04-20 01:21:00",1562493,1.162,144.1,3.141,0.159,7.548,102.1512,4.789,5.83,55.32,0,110,13.29,5.56,106.1
"2016-04-20 01:21:30",1562494,1.418,146.8,4.021,0.091,7.626,102.1439,4.771,5.807,55.39,0,110,13.29,5.54,108.8
"2016-04-20 01:22:00",1562495,2.513,161.3,6.468,1.356,10.29,102.1374,4.754,6.004,55.74,0,110,13.25,5.52,123.3
"2016-04-20 01:22:30",1562496,2.896,161.2,7.565,1.405,10.92,102.1366,4.752,5.988,55.88,0,110,13.25,5.52,123.2
"2016-04-20 01:23:00",1562497,2.346,154.3,6.902,1.348,9.21,102.1363,4.751,5.896,55.82,0,110,13.25,5.52,116.3
"2016-04-20 01:23:30",1562498,1.3,146.6,1.982,0.075,7.184,102.1363,4.751,5.815,55.75,0,110,13.29,5.52,108.6
"2016-04-20 01:24:00",1562499,2.143,149.8,6.837,1.28,8.7,102.1363,4.751,5.945,55.89,0,110,13.24,5.52,111.8
"2016-04-20 01:24:30",1562500,2.421,151,7.578,1.309,9.49,102.136,4.751,5.956,55.93,0,110,13.24,5.52,113.0
"2016-04-20 01:25:00",1562501,1.207,145.5,2.168,0.073,7.748,102.1284,4.731,5.77,55.77,0,110,13.29,5.50,107.5
"2016-04-20 01:25:30",1562502,2.061,150.3,7.246,1.253,9.46,102.1236,4.719,5.878,55.88,0,110,13.24,5.49,112.3
"2016-04-20 01:26:00",1562503,2.151,144.6,7.479,1.356,9.98,102.1194,4.708,5.913,55.95,0,110,13.24,5.48,106.6
"2016-04-20 01:26:30",1562504,2.431,148,8.6,1.417,10.73,102.1165,4.701,5.958,56.06,0,110,13.24,5.47,110.0
"2016-04-20 01:27:00",1562505,1.353,143.3,4.984,0.848,8.1,102.1171,4.702,5.833,56.03,0,110,13.24,5.47,105.3
"2016-04-20 01:27:30",1562506,1.127,150.1,2.446,0.056,7.226,102.1123,4.69,5.738,56.06,0,110,13.29,5.46,112.1
"2016-04-20 01:28:00",1562507,2.472,150.3,7.99,1.373,9.48,102.1033,4.667,5.851,56.16,0,110,13.24,5.44,112.3
"2016-04-20 01:28:30",1562508,2.072,140,4.862,1.251,9.17,102.1024,4.665,5.87,56.29,0,110,13.25,5.43,102.0
"2016-04-20 01:29:00",1562509,1.37,138.4,1.641,0.068,7.757,102.1016,4.663,5.756,56.32,0,110,13.3,5.43,100.4
"2016-04-20 01:29:30",1562510,2.966,149.2,6.639,1.404,10.8,102.0948,4.645,5.858,56.38,0,110,13.26,5.41,111.2
"2016-04-20 01:30:00",1562511,2.51,146.5,8.09,1.285,9.78,102.0863,4.624,5.854,56.22,0,110,13.26,5.39,108.5
"2016-04-20 01:30:30",1562512,2.75,142.5,7.211,1.373,9.67,102.0837,4.617,5.803,56.05,0,110,13.26,5.39,104.5
"2016-04-20 01:31:00",1562513,1.557,135.3,1.142,0.062,7.159,102.0693,4.58,5.677,56.08,0,110,13.3,5.35,97.3
"2016-04-20 01:31:30",1562514,2.329,136.4,6.867,1.211,8.83,102.0685,4.578,5.77,56.44,0,110,13.26,5.35,98.4
"2016-04-20 01:32:00",1562515,2.125,139.6,7.482,1.162,9.36,102.0685,4.578,5.813,56.65,0,110,13.26,5.35,101.6
"2016-04-20 01:32:30",1562516,2.435,140.9,6.968,1.425,10.02,102.0674,4.575,5.736,56.63,0,110,13.26,5.34,102.9
"2016-04-20 01:33:00",1562517,1.866,135.7,8.46,1.236,9.07,102.0603,4.557,5.771,56.78,0,110,13.26,5.33,97.7
"2016-04-20 01:33:30",1562518,1.99,133.7,7.089,1.298,9.84,102.0527,4.538,5.764,56.84,0,110,13.26,5.31,95.7
"2016-04-20 01:34:00",1562519,2.156,138.6,7.06,1.447,10,102.0501,4.531,5.741,56.75,0,110,13.26,5.30,100.6
"2016-04-20 01:34:30",1562520,1.148,134.8,4.942,0.972,8.35,102.049,4.528,5.707,56.53,0,110,13.26,5.30,96.8
"2016-04-20 01:35:00",1562521,0.741,134,1.599,0.029,7.11,102.0422,4.511,5.606,56.27,0,110,13.3,5.28,96.0
"2016-04-20 01:35:30",1562522,0.825,137.4,3.325,0.507,7.098,102.036,4.495,5.631,56.25,0,110,13.26,5.26,99.4
"2016-04-20 01:36:00",1562523,2.334,155.2,8.44,1.383,10.46,102.0349,4.492,5.749,56.36,0,110,13.26,5.26,117.2
"2016-04-20 01:36:30",1562524,1.101,138.6,4.258,0.708,8.13,102.0346,4.492,5.647,56.3,0,110,13.26,5.26,100.6
"2016-04-20 01:37:00",1562525,1.844,143.9,6.887,1.295,9.59,102.0287,4.476,5.769,56.46,0,110,13.26,5.24,105.9
"2016-04-20 01:37:30",1562526,2.274,139.2,7.641,1.416,10.1,102.0236,4.464,5.71,56.52,0,110,13.26,5.23,101.2
"2016-04-20 01:38:00",1562527,1.683,137.2,6.383,1.239,8.96,102.0254,4.468,5.671,56.54,0,110,13.26,5.24,99.2
"2016-04-20 01:38:30",1562528,1.739,136.5,6.667,1.27,8.74,102.0229,4.462,5.625,56.55,0,110,13.26,5.23,98.5
"2016-04-20 01:39:00",1562529,0.9,135,4.472,0.082,7.139,102.0153,4.442,5.541,56.52,0,110,13.31,5.21,97.0
"2016-04-20 01:39:30",1562530,1.289,147.9,6.334,1.039,7.851,102.0113,4.432,5.565,56.59,0,110,13.26,5.20,109.9
"2016-04-20 01:40:00",1562531,1.916,152.5,8.32,1.374,9.48,102.0113,4.432,5.651,56.66,0,110,13.26,5.20,114.5
"2016-04-20 01:40:30",1562532,1.462,151.9,5.567,1.258,9.16,102.0139,4.439,5.606,56.69,0,110,13.26,5.21,113.9
"2016-04-20 01:41:00",1562533,1.961,162.7,9.29,1.371,9.86,102.0151,4.442,5.616,56.76,0,110,13.26,5.21,124.7
"2016-04-20 01:41:30",1562534,1.757,167.2,7.262,1.277,9.5,102.0157,4.443,5.601,56.91,0,110,13.26,5.21,129.2
"2016-04-20 01:42:00",1562535,2.019,168.8,6.503,1.323,9.44,102.0148,4.441,5.588,57.04,0,110,13.26,5.21,130.8
"2016-04-20 01:42:30",1562536,1.684,171.7,7.654,1.238,8.74,102.0117,4.433,5.595,57.14,0,110,13.26,5.20,133.7
"2016-04-20 01:43:00",1562537,0.926,166.4,1.961,0.021,7.012,102.0104,4.43,5.462,57.08,0,110,13.3,5.20,128.4
"2016-04-20 01:43:30",1562538,0.934,164.7,1.297,0.02,7.084,102.0058,4.418,5.465,57.1,0,110,13.3,5.19,126.7
"2016-04-20 01:44:00",1562539,1.803,167.3,6.089,1.25,9,102.0042,4.414,5.578,57.23,0,110,13.26,5.18,129.3
"2016-04-20 01:44:30",1562540,2.206,170.2,7.644,1.402,9.86,102.005,4.416,5.6,57.3,0,110,13.26,5.18,132.2
"2016-04-20 01:45:00",1562541,2.089,167.8,8.2,1.329,9.73,102.0056,4.418,5.547,57.36,0,109.9,13.26,5.18,129.8
"2016-04-20 01:45:30",1562542,1.875,151.2,10.44,1.375,9.5,102.0054,4.417,5.654,57.64,0,110,13.26,5.18,113.2
"2016-04-20 01:46:00",1562543,1.735,156.6,10.41,1.499,9.53,101.9966,4.395,5.556,57.64,0,109.9,13.26,5.16,118.6
"2016-04-20 01:46:30",1562544,0.784,147.9,16.61,1.117,8.23,101.9927,4.385,5.552,57.71,0,110,13.27,5.15,109.9
"2016-04-20 01:47:00",1562545,0.48,135.2,4.716,0.213,6.704,101.9936,4.387,5.426,57.64,0,110,13.31,5.15,97.2
"2016-04-20 01:47:30",1562546,0.738,132.4,2.076,0.103,6.581,101.9947,4.39,5.419,57.63,0,109.9,13.31,5.16,94.4
"2016-04-20 01:48:00",1562547,0.657,138.5,4.947,0.078,6.879,101.9965,4.394,5.412,57.6,0,109.9,13.32,5.16,100.5
"2016-04-20 01:48:30",1562548,1.977,139.9,10.96,1.448,9.8,101.9936,4.387,5.595,57.77,0,109.9,13.27,5.15,101.9
"2016-04-20 01:49:00",1562549,1.731,154.3,5.651,1.461,9.99,101.992,4.383,5.581,57.79,0,109.9,13.27,5.15,116.3
"2016-04-20 01:49:30",1562550,1.998,145,12.2,1.315,10.04,101.9855,4.366,5.525,57.77,0,109.9,13.27,5.13,107.0
"2016-04-20 01:50:00",1562551,2.112,174.3,15.91,1.335,10.33,101.9812,4.355,5.562,57.91,0,109.9,13.27,5.12,136.3